Wind_Speed
18 18 18 18 18 18 17 17 17 17 17 16 16 16 16 15 15 14 13 13 12 11 10 10 9 9 9 9 8 8 8 8 8 9 9 9 9 9 9 9 9 8 8 9 9 9 8 8 7 7 6 6 6 6 6 6 6 5 4 4 5 5 6 8 8 9 11 13 12 10 10 9 11 11 9 10 11 12 14 15 13 12 12 11 11 11 10 10
18 18 18 18 18 18 18 18 17 17 17 17 17 16 16 16 15 14 13 12 12 11 11 10 10 9 9 8 8 8 8 8 9 9 10 10 10 9 9 9 8 8 8 8 8 8 8 8 7 7 7 7 7 6 6 6 6 6 5 4 5 7 10 11 10 11 11 10 9 9 9 10 11 12 10 9 12 13 12 15 15 13 13 12 12 12 11 11
19 19 19 19 19 19 19 19 19 18 18 18 17 17 16 16 15 14 13 12 12 11 11 10 9 9 8 8 8 8 8 9 9 9 10 10 10 9 9 9 9 8 8 8 8 9 9 9 8 7 7 7 7 6 6 6 5 6 4 3 7 10 10 10 10 10 9 9 9 9 9 11 12 12 12 10 12 13 11 15 17 16 14 13 13 12 12 11
20 20 20 20 20 20 20 20 20 20 19 18 18 17 17 16 15 14 13 12 12 11 10 10 9 8 8 8 8 8 7 9 10 9 10 10 10 10 9 9 9 9 8 8 9 9 9 9 8 7 6 6 6 5 5 5 5 5 4 5 8 9 8 9 9 9 9 9 9 10 10 12 12 12 13 13 11 10 13 16 17 18 16 15 15 14 13 11
21 22 22 22 22 22 22 22 21 20 20 19 18 18 17 16 15 15 13 12 11 11 10 9 9 8 8 8 8 8 6 7 9 10 10 10 10 10 10 9 9 9 9 9 10 9 9 8 7 5 5 5 5 5 6 5 5 5 7 8 9 8 9 10 9 9 9 9 10 11 12 13 13 13 13 14 12 11 16 17 16 18 18 17 17 16 14 11
20 21 22 22 23 23 23 22 22 21 20 19 19 18 18 17 16 15 14 13 12 11 10 9 9 9 8 8 8 8 6 6 9 8 9 10 10 11 10 10 10 10 10 10 10 9 8 7 6 5 5 5 5 6 7 7 6 6 8 10 9 10 11 11 10 10 10 11 12 13 14 14 14 16 15 15 16 15 18 18 18 18 18 18 18 17 15 12
19 20 20 21 22 22 22 22 22 21 20 20 20 19 18 18 17 16 14 13 12 11 11 10 10 9 9 9 9 9 9 11 11 10 9 9 9 11 11 11 11 11 11 10 10 9 8 7 7 6 5 6 7 9 8 9 8 8 11 12 11 12 12 12 13 12 12 13 14 15 15 15 16 17 16 16 17 16 17 18 18 18 18 18 18 17 15 12
20 19 20 20 20 21 21 22 22 21 21 21 20 20 19 19 17 16 15 14 13 13 12 12 11 11 10 10 10 10 11 12 13 12 12 11 10 10 11 12 12 12 11 11 10 10 9 8 8 8 8 8 8 10 10 9 10 11 13 13 12 13 13 14 14 14 15 15 15 16 15 15 17 18 17 18 17 16 17 18 18 18 18 18 17 16 15 13
20 20 20 20 20 21 22 22 22 22 22 22 21 21 20 19 18 17 16 15 15 15 14 13 12 12 11 11 11 11 12 12 13 13 13 12 12 12 13 13 12 12 12 11 11 11 10 10 10 9 10 11 10 11 11 9 10 12 13 13 13 14 14 15 15 15 15 16 16 16 16 18 19 18 19 18 16 16 17 17 18 18 18 18 18 17 16 15
22 21 20 20 20 21 22 23 23 23 23 23 22 22 21 20 20 19 18 17 17 16 16 15 14 14 13 13 12 12 13 12 13 14 13 13 14 14 14 14 13 13 13 13 12 12 12 11 11 11 11 13 12 12 12 11 12 15 14 15 15 16 16 16 16 16 16 17 17 17 17 19 18 18 20 18 16 16 17 17 18 18 18 18 18 18 18 17
24 23 22 21 21 21 23 23 24 24 24 24 23 23 22 21 21 20 20 19 19 18 18 17 16 16 15 15 14 14 14 13 14 14 14 15 15 15 15 15 15 14 14 14 14 14 13 13 13 12 13 13 13 13 14 14 14 15 16 16 17 17 18 17 16 16 17 17 17 17 18 20 19 20 21 19 17 17 17 18 18 18 18 18 18 18 18 19
26 25 24 23 22 22 23 24 24 25 25 24 25 24 23 23 23 22 21 21 21 20 20 19 18 18 17 17 16 15 16 16 16 16 16 16 16 16 16 16 16 16 16 15 15 15 15 15 14 14 14 13 14 14 14 14 15 16 17 16 17 18 18 19 17 16 17 18 18 17 18 21 19 20 20 18 18 19 18 19 19 19 19 18 18 18 18 19
28 27 26 25 24 24 23 24 24 26 26 26 26 26 25 25 24 24 23 23 23 22 21 20 20 19 19 19 17 16 17 17 18 18 17 17 18 18 17 17 17 17 17 17 17 17 16 16 16 16 16 15 17 17 16 17 17 17 19 19 19 18 17 19 18 17 17 17 16 16 16 16 14 16 17 16 17 17 18 19 19 19 19 19 19 19 19 19
31 30 28 27 26 25 25 25 25 26 26 27 27 27 27 26 26 26 25 25 24 24 23 22 22 21 21 21 19 17 18 18 18 18 18 19 19 19 19 18 18 18 18 18 18 18 18 18 17 18 18 17 19 18 19 20 19 19 19 19 19 15 13 17 17 15 15 14 13 14 14 13 14 18 18 17 17 17 18 18 19 19 20 20 20 20 20 19
34 32 31 30 28 27 27 26 26 26 27 28 28 29 29 28 28 27 27 26 26 25 24 24 23 23 24 23 21 20 20 19 19 19 19 20 21 21 20 20 19 20 19 19 19 20 19 19 19 19 19 19 19 20 19 20 20 20 18 13 13 12 10 16 20 18 17 16 14 13 12 11 15 20 20 19 17 16 18 18 19 20 20 21 22 21 20 20
37 35 33 32 31 30 29 28 28 27 27 28 29 30 30 30 29 29 28 28 27 27 26 26 25 24 26 24 22 21 20 20 20 20 21 21 21 21 21 21 21 20 21 21 21 21 21 21 21 21 21 20 20 20 16 15 16 18 18 13 11 12 10 12 19 20 18 17 16 16 14 11 15 21 20 18 17 16 17 18 19 20 21 22 22 22 21 20
39 38 36 35 33 32 31 30 30 29 28 29 29 30 30 31 31 30 30 30 29 29 28 28 26 26 27 25 22 20 19 19 20 21 22 22 22 22 22 22 22 21 22 22 22 23 22 23 22 21 22 22 22 19 13 12 13 13 15 14 12 13 13 12 15 19 18 16 15 17 19 17 18 23 23 20 21 21 20 21 21 22 22 23 23 23 22 22
41 40 39 37 36 35 34 33 32 31 30 30 30 30 30 31 31 32 32 32 31 30 30 29 27 28 28 25 24 22 20 21 21 21 21 22 22 22 23 23 23 23 23 24 24 24 24 24 23 22 24 25 23 21 17 15 11 9 10 10 11 12 14 13 13 19 21 18 18 18 22 21 19 24 27 25 25 25 24 24 25 25 25 25 25 25 25 25
43 43 41 40 39 37 36 35 34 33 32 32 32 31 31 31 32 33 33 34 33 32 30 30 29 28 27 25 23 21 21 22 22 22 22 21 21 22 23 23 23 23 24 24 24 25 24 24 24 23 25 27 25 23 22 18 14 15 14 14 15 14 15 15 16 23 24 22 23 22 23 24 20 21 26 29 28 27 27 28 28 28 28 28 28 28 28 27
45 44 43 42 41 40 38 37 36 35 34 34 34 33 33 33 32 33 35 36 35 33 32 32 31 30 30 28 26 24 23 23 21 21 21 21 21 22 23 23 23 24 25 24 25 26 24 25 27 27 26 25 24 25 23 19 20 22 21 20 21 20 21 19 21 28 27 24 26 24 24 27 26 23 25 31 33 30 29 29 30 30 30 31 30 30 29 28
46 45 45 44 42 41 40 39 38 37 36 36 35 35 34 33 32 33 35 35 35 34 34 35 35 35 34 33 30 28 28 27 26 23 22 21 21 21 22 21 22 24 25 25 27 27 25 28 30 26 24 23 23 25 23 22 23 23 22 21 20 21 23 21 25 31 28 26 28 26 27 30 32 29 26 32 36 34 31 30 31 31 31 30 30 30 29 27
46 46 45 44 43 42 41 40 39 38 38 38 37 36 35 34 33 33 34 34 36 36 36 37 38 37 37 35 33 31 30 30 30 28 25 24 23 22 23 21 21 23 24 25 25 25 27 31 29 24 25 26 25 25 24 24 24 22 23 22 20 22 23 22 26 30 26 25 26 25 30 33 34 32 31 34 37 35 34 33 32 33 32 31 29 29 28 27
44 45 45 45 44 42 41 40 39 39 39 39 37 35 34 34 34 33 33 35 39 38 38 39 39 38 38 37 34 32 33 33 31 30 28 27 27 27 27 26 25 26 28 28 26 26 28 29 27 24 25 26 24 24 24 25 25 25 24 22 22 24 22 19 21 24 24 24 25 26 33 38 38 38 35 36 39 38 36 34 35 36 35 33 31 29 27 26
42 42 43 44 43 43 42 41 41 41 40 39 36 34 34 34 34 33 32 35 40 43 41 40 40 41 40 38 36 34 35 33 33 33 31 29 29 29 30 29 27 29 33 31 29 30 30 29 29 26 24 23 22 22 23 23 24 25 26 25 25 24 21 19 19 24 28 28 29 30 32 37 40 37 31 30 32 30 28 29 32 36 37 35 32 30 27 26
41 40 41 41 40 41 41 42 44 42 40 38 35 34 34 34 33 32 31 32 39 45 44 43 43 43 43 41 38 37 36 36 37 36 32 30 31 30 31 30 29 32 34 32 31 33 31 32 34 32 30 29 26 27 26 24 22 22 23 26 25 22 20 18 18 24 26 23 24 22 18 21 22 18 19 22 22 18 18 22 26 29 33 34 33 31 29 27
46 43 42 40 39 38 39 43 43 40 41 39 35 34 34 34 32 31 30 28 37 48 47 45 43 42 44 43 41 37 36 41 41 37 34 32 33 32 32 33 34 33 31 30 31 33 34 35 35 34 33 31 30 31 30 29 25 20 19 24 25 22 21 21 21 22 18 14 15 13 10 13 18 17 17 21 23 23 25 26 27 26 25 28 31 30 28 27
52 49 47 45 43 40 39 40 38 37 40 37 35 35 34 33 29 29 25 17 29 45 46 45 44 42 42 40 39 36 35 41 40 36 37 35 34 35 34 36 37 34 33 30 28 32 35 35 34 33 32 31 32 31 31 31 26 21 22 26 26 22 21 21 21 20 18 17 18 19 17 19 27 30 27 27 29 31 32 29 28 26 22 22 25 26 26 26
51 51 52 52 50 47 44 42 39 37 35 34 35 34 33 31 27 26 17 7 16 27 28 34 42 44 42 38 35 35 38 40 36 34 37 35 36 38 37 38 38 36 35 34 31 32 34 32 31 30 27 27 30 30 29 29 25 23 25 27 25 23 21 20 19 18 17 17 18 19 18 16 22 25 20 24 30 31 30 26 25 24 21 19 20 22 23 23
52 51 51 52 53 53 52 49 47 41 34 32 32 31 31 27 24 21 10 8 22 25 19 23 30 35 37 36 35 36 38 39 37 36 34 32 36 39 40 39 37 37 38 38 36 34 33 34 31 28 26 27 28 28 28 25 24 24 24 25 25 23 22 20 18 16 13 15 18 17 16 14 18 19 14 18 26 27 26 24 22 23 21 18 17 18 20 20
57 56 52 50 50 53 55 55 53 47 38 33 31 30 29 26 24 18 8 15 27 25 22 22 24 28 28 29 31 33 36 38 38 37 34 34 34 36 40 39 36 38 40 39 39 38 38 36 33 31 30 30 31 30 28 25 24 24 23 22 21 20 20 18 14 11 9 15 19 18 21 19 13 12 12 18 21 21 20 21 20 22 24 21 19 19 20 20
54 58 58 57 55 53 55 56 55 50 41 35 31 30 29 27 25 15 13 30 31 21 22 22 24 28 27 26 26 27 32 35 37 37 36 36 35 35 38 38 37 36 37 40 39 40 41 39 38 38 37 34 33 31 29 28 25 23 22 18 13 11 12 11 10 9 8 11 12 13 22 24 17 9 7 12 16 15 17 18 17 21 25 25 22 21 21 20
45 49 54 59 60 58 58 56 54 47 39 36 32 32 33 28 24 23 29 35 24 19 25 25 25 27 23 24 25 24 27 30 33 36 36 36 37 39 38 37 38 30 27 35 39 37 40 41 39 39 38 37 34 31 30 30 27 25 21 14 9 6 6 7 7 7 10 10 7 9 16 21 26 24 16 13 16 16 16 17 18 20 23 25 24 22 21 19
41 43 47 52 55 58 58 54 50 42 36 36 33 35 37 24 23 44 51 33 13 12 20 20 23 23 21 25 27 26 26 27 30 32 35 36 36 38 38 36 38 32 20 21 28 29 27 31 35 36 37 36 35 34 32 31 28 28 25 19 14 8 5 8 8 8 12 11 10 12 13 14 20 24 24 23 24 21 17 18 19 19 20 21 20 19 18 17
41 42 44 46 48 52 54 51 48 41 35 35 34 38 36 26 35 56 58 44 26 18 15 12 18 23 24 28 28 27 28 28 30 31 33 36 36 38 40 37 37 38 28 15 17 21 16 15 21 26 28 28 30 32 31 29 27 28 27 22 19 14 9 8 7 7 6 4 6 11 10 8 8 10 14 17 20 22 20 19 18 18 17 17 17 18 17 16
41 42 42 42 43 47 50 49 46 40 36 36 38 42 40 39 52 57 52 49 39 30 21 12 15 24 28 30 29 28 31 31 32 33 33 36 38 39 39 39 38 38 35 23 17 19 19 17 19 21 21 18 18 20 25 27 24 24 23 22 23 23 19 14 11 9 7 6 5 11 11 12 11 11 10 7 11 18 22 22 20 18 18 17 17 17 16 15
42 44 43 42 43 44 47 50 47 40 40 40 43 48 50 56 60 49 41 45 44 41 32 18 17 24 28 32 33 31 33 33 32 34 36 36 39 40 39 39 37 36 37 32 24 19 16 17 23 25 24 21 19 18 23 25 20 17 20 26 30 29 24 17 13 14 12 11 10 13 15 20 20 22 21 15 14 16 20 22 22 21 21 20 19 17 15 16
44 46 47 46 45 44 44 48 48 43 43 46 50 54 60 66 64 47 32 35 44 47 40 28 24 27 29 32 34 34 33 34 33 33 35 35 35 40 42 40 37 36 35 34 31 27 18 12 17 21 22 23 23 21 23 27 25 20 21 26 29 27 25 18 9 8 9 10 11 13 16 18 17 17 20 21 20 18 20 21 23 25 24 23 21 18 17 17
44 47 52 51 47 47 47 46 48 47 45 50 55 57 63 68 69 60 41 33 40 44 41 38 33 30 32 32 33 36 35 34 37 35 33 32 31 33 38 38 37 35 32 31 31 30 26 19 16 20 22 21 21 21 23 26 28 28 26 24 21 17 17 18 11 7 8 9 9 12 17 20 21 19 17 21 23 22 22 22 24 26 26 26 23 20 20 20
43 50 58 56 50 50 50 46 47 50 52 55 57 58 67 72 70 66 55 44 42 39 39 43 39 29 28 31 32 37 38 37 40 38 34 33 33 33 32 30 30 30 29 31 33 32 31 22 14 18 22 22 23 26 27 27 30 33 32 27 23 17 12 16 17 11 8 9 9 10 12 15 21 24 22 24 23 22 22 22 24 27 27 26 23 21 21 21
43 52 63 61 54 53 52 49 50 55 59 62 64 66 70 71 68 66 64 57 50 42 39 41 41 34 31 30 31 36 40 40 41 41 38 37 35 35 33 28 28 28 24 25 31 34 33 27 19 16 19 23 26 29 31 32 33 35 36 32 29 28 20 15 19 20 14 8 6 8 9 10 12 16 19 22 19 18 19 19 22 25 25 24 22 20 21 20
44 55 66 64 57 54 53 53 56 60 62 63 66 70 70 65 63 66 68 63 55 50 45 40 41 41 39 37 34 35 38 40 42 42 42 43 40 36 35 33 30 29 25 24 29 33 34 34 29 23 24 28 32 34 33 33 35 35 37 38 36 37 31 17 14 22 24 17 11 8 9 12 10 7 11 17 16 15 16 17 21 23 23 23 22 21 21 20
49 60 68 66 59 56 55 59 61 62 65 67 64 66 65 60 59 62 63 62 59 56 51 47 46 44 41 43 42 40 39 40 43 45 44 46 46 41 38 34 29 28 27 25 28 32 34 37 35 32 34 35 35 38 35 34 36 35 35 38 37 38 40 28 12 12 21 27 26 16 11 17 18 12 10 15 16 15 15 17 22 24 23 23 23 23 23 22
54 61 65 65 60 55 56 61 62 61 64 67 63 59 60 59 59 60 59 59 62 61 56 53 52 49 45 42 40 40 42 40 41 46 46 45 47 45 41 37 32 30 29 28 31 32 33 36 33 27 27 28 30 36 35 32 33 35 37 39 38 40 42 37 26 16 14 21 22 13 11 16 18 16 15 15 16 16 17 19 23 25 25 24 25 26 25 23
57 61 65 66 61 56 58 60 61 61 62 67 65 60 58 56 56 59 59 58 60 61 60 58 56 55 52 45 39 40 42 39 39 43 44 44 45 43 41 39 36 34 33 33 35 33 34 36 29 16 11 13 17 21 27 31 34 37 41 41 41 43 38 36 38 29 22 25 21 11 13 16 13 14 17 17 18 19 19 21 23 24 26 26 26 26 25 24
50 54 55 54 51 53 58 61 63 64 64 66 67 65 61 55 53 57 56 55 56 57 59 61 60 56 52 49 46 45 44 43 41 39 39 42 44 43 41 40 38 37 36 37 38 38 39 41 35 23 14 12 12 13 22 34 39 42 45 43 44 45 41 40 39 30 27 31 27 23 24 21 14 14 17 17 19 21 22 24 24 24 25 26 25 25 25 25
46 47 45 40 39 43 49 54 61 65 65 65 66 66 66 61 58 58 54 51 53 55 57 60 58 53 50 50 51 50 49 47 42 37 36 38 41 42 42 40 39 38 38 38 40 43 43 42 43 42 36 32 29 26 26 31 35 39 44 46 48 47 46 44 39 35 32 26 29 40 38 27 22 20 18 18 20 21 23 25 25 27 27 27 25 25 26 25
46 47 46 40 38 43 47 50 56 63 64 66 67 67 68 68 62 56 53 53 54 54 55 55 53 51 51 54 55 55 52 47 43 43 44 42 41 40 38 38 39 39 39 40 44 47 44 41 45 49 49 49 46 40 36 33 32 34 36 41 46 47 48 48 46 48 42 24 27 42 40 35 39 35 26 23 21 22 23 25 26 28 28 26 24 25 26 26
44 46 47 43 40 46 52 53 56 60 61 63 67 65 63 66 63 54 50 53 54 54 52 50 52 55 56 56 54 53 51 46 45 50 51 48 47 44 39 38 37 38 40 42 47 50 46 45 48 46 46 52 51 47 47 42 36 33 31 33 38 41 46 51 54 56 48 37 38 40 34 37 44 42 37 31 25 25 27 27 28 28 28 27 26 27 29 29
41 41 43 45 43 47 54 52 51 57 62 61 63 64 60 61 64 61 54 48 49 53 54 53 58 62 61 58 53 50 49 47 49 53 53 51 51 49 46 44 43 44 43 44 49 51 48 50 52 46 46 53 51 49 51 47 40 36 33 34 37 39 43 47 50 52 50 51 53 47 37 35 33 32 35 31 28 31 31 30 30 30 30 31 30 29 30 30
42 39 39 43 45 46 50 49 45 49 59 61 62 64 63 62 64 64 59 53 51 54 57 59 62 64 63 61 57 55 56 56 56 56 53 51 52 53 51 50 49 49 47 47 51 51 49 49 49 44 43 50 51 48 47 47 45 42 39 40 41 39 39 41 44 46 49 54 57 51 45 43 35 29 30 29 30 33 32 32 32 32 32 32 31 31 32 32
42 39 36 37 41 44 46 48 46 46 49 55 60 63 63 65 66 63 60 59 59 57 56 59 61 61 60 58 58 60 62 61 59 57 53 52 53 54 53 51 51 50 50 50 51 52 51 49 47 39 35 46 52 44 41 46 44 41 47 52 49 42 39 41 44 45 47 51 52 49 51 54 49 42 38 35 33 33 35 36 35 34 34 34 34 35 35 35
39 39 37 33 34 38 40 44 48 50 49 49 54 60 61 62 64 60 53 53 57 59 59 59 59 57 56 57 58 61 61 58 57 57 55 55 54 53 51 50 51 52 52 52 54 57 55 52 51 41 31 41 48 38 38 39 26 29 53 63 55 48 44 43 45 46 47 47 46 48 53 54 50 45 42 40 40 40 40 39 36 35 35 35 36 36 34 35
Wind_Direction
193 191 190 188 188 189 189 189 190 190 190 190 193 195 198 201 204 205 203 201 199 200 202 209 215 221 225 227 231 234 237 242 247 249 253 253 251 251 251 253 255 257 260 262 263 263 263 261 258 256 254 254 253 254 253 248 242 234 216 212 230 214 214 222 210 203 207 224 233 232 236 238 253 260 254 263 271 270 279 279 276 279 281 285 289 290 286 281
198 196 195 195 195 196 196 197 197 198 199 201 204 206 207 207 206 205 202 201 203 207 212 219 224 228 234 239 243 247 250 252 253 252 252 254 252 252 253 254 257 259 259 260 262 260 260 259 257 256 254 256 257 256 254 250 244 232 211 218 236 220 224 228 223 221 216 226 232 231 236 233 247 262 265 272 274 277 289 284 282 282 283 289 291 291 287 285
205 204 203 203 202 203 202 203 204 205 208 211 213 213 211 208 205 205 205 207 210 214 218 223 229 233 239 247 253 258 260 262 261 256 253 253 253 252 252 254 256 257 255 254 257 257 257 258 257 256 256 257 256 255 251 245 239 229 205 220 245 236 234 234 236 238 232 238 237 235 240 241 248 260 268 266 269 285 287 277 283 286 287 292 290 286 282 278
212 212 211 211 210 210 210 211 213 214 216 217 216 213 210 208 207 208 211 214 216 219 223 227 232 237 243 249 257 261 264 270 267 257 254 252 252 253 250 253 254 250 248 250 254 256 256 257 256 254 253 253 250 248 242 236 232 222 205 226 245 244 243 239 242 247 246 247 247 245 246 249 255 259 267 267 272 284 270 269 282 286 290 292 288 285 279 276
217 218 218 218 218 218 219 220 221 221 220 218 214 211 209 210 211 213 215 218 221 225 228 232 237 241 248 252 257 260 264 275 266 254 253 251 250 249 248 250 247 244 245 250 252 253 253 252 251 245 239 243 243 242 237 232 237 242 239 244 252 254 253 251 251 254 255 256 257 256 255 257 262 264 266 269 269 256 258 274 281 281 288 289 286 285 281 281
219 221 222 223 224 224 223 223 223 222 219 215 213 212 212 213 215 217 219 222 225 229 233 236 241 243 248 251 253 256 249 249 255 255 252 249 247 245 246 243 238 240 245 246 246 247 248 246 242 233 229 241 244 245 247 243 246 259 259 254 259 260 258 260 260 261 262 262 261 261 262 264 267 267 265 265 266 260 263 273 275 276 282 282 281 280 278 278
222 223 224 225 226 225 224 222 221 218 216 215 215 216 216 217 218 221 223 227 230 233 237 238 242 245 247 251 252 254 249 247 252 256 254 250 247 244 241 237 236 242 243 240 241 242 242 241 242 238 237 250 253 252 255 258 256 259 263 262 263 264 262 264 266 269 268 265 265 264 265 267 266 266 266 264 264 265 265 267 271 276 277 276 275 273 271 270
226 227 226 227 226 225 223 220 219 218 217 217 218 219 220 221 222 225 227 230 234 236 240 241 245 248 250 253 253 254 253 253 256 255 253 250 247 242 237 237 242 244 240 239 239 240 240 241 244 247 248 251 256 258 260 270 270 261 264 268 268 267 267 268 269 270 270 268 268 267 267 266 265 265 265 263 261 261 262 265 269 272 272 273 270 267 265 265
229 229 229 229 227 225 222 220 220 219 220 221 221 222 222 223 225 228 230 233 237 240 243 246 250 252 254 255 256 260 257 255 258 256 253 249 246 242 239 242 246 242 239 240 240 240 242 244 246 251 256 256 259 264 263 270 272 265 268 272 272 271 270 270 270 270 269 269 268 268 269 267 266 268 266 262 259 259 260 264 266 267 267 268 267 264 261 261
231 232 232 232 230 226 224 222 222 222 223 224 224 225 225 226 228 230 233 235 239 243 247 250 253 255 257 257 259 263 260 258 259 256 253 249 244 244 243 244 244 242 241 240 241 242 245 248 251 255 261 264 265 266 268 266 266 270 275 276 275 274 273 272 271 270 269 269 268 268 269 268 266 265 264 264 264 262 261 263 264 264 263 264 264 263 262 264
232 233 234 234 233 231 228 226 225 225 226 227 228 228 229 230 232 233 235 238 241 245 249 252 256 257 258 259 260 262 261 260 260 256 253 250 246 245 245 245 245 244 243 241 241 243 247 252 256 261 264 268 269 269 272 269 268 273 276 277 277 276 277 275 272 272 271 268 268 269 267 266 265 262 264 268 268 264 263 264 264 262 261 262 262 262 265 268
232 234 235 235 235 234 232 230 229 229 229 230 231 232 232 233 234 236 238 240 243 246 250 253 257 259 260 260 259 263 263 261 260 257 254 251 248 247 245 246 247 246 245 243 243 245 250 254 259 264 265 268 272 274 274 273 274 277 277 278 280 282 282 280 277 273 270 268 269 270 270 271 269 265 266 268 267 265 265 265 264 262 262 262 261 262 265 269
232 234 235 235 236 236 235 234 233 232 232 232 233 234 235 236 237 238 240 242 245 248 251 254 257 260 262 262 260 262 263 262 260 258 254 251 249 248 247 246 246 246 246 246 246 248 252 256 260 264 265 268 270 273 275 277 279 281 282 281 282 285 283 280 281 277 271 269 267 263 266 276 276 270 270 266 263 264 264 266 266 264 264 263 263 264 266 269
232 234 235 236 236 237 237 236 236 235 234 234 235 236 236 237 239 240 241 243 245 248 251 254 258 261 263 262 261 262 263 261 261 259 256 252 249 248 247 247 246 246 247 248 249 251 254 258 261 264 265 267 270 273 277 279 280 281 284 286 288 286 274 273 277 278 275 269 265 259 259 272 273 269 272 268 263 263 264 267 267 265 265 265 266 266 267 269
233 233 235 236 237 238 238 238 238 238 237 237 237 237 238 239 240 241 242 244 246 249 252 254 257 262 264 263 262 262 262 261 261 260 257 252 249 248 247 247 246 246 247 249 251 253 257 259 262 266 266 268 271 274 277 282 285 285 283 282 286 282 270 276 277 274 276 272 265 260 259 268 267 266 269 268 263 263 266 267 266 266 265 265 265 266 266 267
234 234 235 236 237 238 239 240 240 240 239 239 239 239 239 240 241 242 244 245 247 249 251 254 257 260 264 264 262 262 262 262 261 258 255 253 250 248 247 247 247 248 249 251 253 255 258 260 263 265 267 269 270 273 277 280 280 281 280 272 268 271 268 275 279 276 272 270 267 262 257 258 265 267 266 264 264 265 268 268 266 266 264 264 264 264 264 265
235 235 235 236 237 239 240 241 241 241 241 241 241 241 241 242 242 243 245 246 247 249 251 253 256 260 262 263 262 263 264 263 260 256 253 252 251 249 248 248 249 250 251 253 255 257 259 261 263 264 266 266 266 268 267 262 263 265 271 275 269 268 266 266 276 277 271 266 267 267 264 260 261 267 267 266 270 271 270 269 268 266 263 263 262 262 263 264
236 236 236 236 237 239 240 241 242 242 242 243 243 242 242 243 244 244 245 246 247 248 251 252 254 258 261 262 263 263 263 262 260 257 254 251 250 250 250 250 250 252 254 256 257 258 260 261 261 262 263 262 261 259 253 256 267 258 256 276 279 271 270 271 270 270 270 270 269 269 271 269 264 269 273 269 268 270 271 270 269 266 263 261 260 261 262 264
237 237 238 238 238 239 240 241 243 243 244 244 244 244 244 244 245 245 245 246 246 247 250 253 253 255 259 262 263 264 263 262 261 257 254 252 250 249 249 249 250 252 254 256 256 256 257 259 259 256 257 262 266 265 263 265 265 261 262 269 271 267 267 269 264 265 271 277 276 271 270 272 268 267 275 274 270 268 268 269 268 266 264 261 260 261 262 265
238 238 239 239 240 240 241 242 243 244 244 245 245 245 246 246 247 248 247 246 247 248 251 253 253 254 256 259 261 263 264 263 262 259 255 251 248 248 248 248 249 250 252 254 256 256 256 259 258 256 260 266 270 271 271 265 260 264 269 268 267 265 266 269 267 269 275 278 277 275 271 272 269 264 270 275 275 271 268 269 269 267 265 262 261 261 263 264
239 239 239 240 240 241 242 243 244 245 245 245 246 246 247 248 250 251 250 250 249 249 249 251 252 253 255 258 259 261 263 263 261 259 255 251 247 248 248 247 249 251 252 253 255 258 258 256 256 260 264 261 262 269 271 266 265 268 267 266 266 265 267 268 268 274 280 278 276 276 273 273 273 271 268 269 272 274 273 271 270 268 265 264 263 262 261 261
239 240 240 241 241 241 242 243 244 245 245 245 245 247 249 251 252 253 255 255 252 249 249 250 250 252 254 257 258 259 260 261 259 257 254 251 248 250 251 248 250 254 254 252 254 258 257 256 258 262 264 262 263 267 269 267 266 265 263 262 261 263 268 269 273 280 283 279 278 277 276 275 275 273 270 269 272 274 273 272 270 269 266 264 263 262 260 257
240 241 241 242 242 242 243 243 244 244 244 245 246 248 250 252 254 255 257 258 256 251 249 250 250 252 254 255 256 258 258 257 259 257 252 250 249 251 253 250 252 255 255 253 252 253 254 259 262 260 261 267 268 265 262 263 262 260 259 256 257 263 267 269 276 283 281 278 278 280 281 279 276 275 274 273 273 273 272 271 268 266 265 262 260 260 258 254
242 243 243 243 243 243 243 244 244 243 244 245 246 248 251 253 255 257 258 260 260 255 250 250 250 251 251 253 255 255 256 256 257 255 251 249 249 249 251 252 252 253 254 253 253 253 255 260 262 261 261 263 263 261 258 258 260 261 259 256 258 263 265 270 274 276 278 282 282 283 284 282 281 282 278 275 275 275 273 269 265 263 262 260 258 256 253 251
243 244 244 243 244 244 244 245 244 243 245 245 245 248 250 253 255 257 259 262 264 259 252 250 250 251 251 251 252 253 255 256 253 253 251 248 247 248 249 250 248 249 252 253 255 256 254 255 258 259 260 259 260 262 262 260 259 262 265 266 267 266 263 265 270 274 281 286 285 285 285 284 285 280 274 276 276 274 272 272 272 269 263 258 254 251 249 247
244 245 244 244 244 245 244 244 244 246 247 246 246 248 249 251 253 255 256 262 266 261 255 252 250 250 250 248 248 250 253 254 251 251 251 247 246 247 248 249 246 245 249 252 253 254 251 252 256 258 259 261 261 261 263 263 259 257 261 267 271 270 264 261 264 272 277 277 278 272 265 279 280 268 266 272 270 269 272 276 277 276 269 258 250 246 245 241
241 244 245 245 245 246 246 246 246 247 248 247 246 247 248 248 248 249 251 263 268 262 257 252 249 248 247 247 248 244 245 251 251 249 248 246 245 245 245 247 248 245 245 246 247 250 253 254 257 259 260 261 260 260 263 263 259 254 257 264 269 270 267 266 267 267 266 268 270 264 263 274 274 271 268 266 268 273 276 275 270 270 268 256 244 238 237 234
238 241 244 245 245 245 247 249 248 247 249 248 245 245 245 243 241 239 240 250 259 258 255 248 246 247 247 246 246 240 240 247 249 248 247 244 243 243 242 244 247 249 247 244 243 251 258 258 258 260 259 259 260 261 263 264 261 257 259 263 266 268 268 269 268 264 266 270 264 255 255 263 271 272 269 267 271 275 279 276 265 259 257 248 237 230 229 228
239 240 241 243 243 243 244 246 246 245 248 246 242 241 238 235 233 226 219 242 247 248 247 239 240 243 243 241 240 239 242 245 245 247 247 243 241 241 242 242 242 245 247 245 244 249 255 257 258 258 255 255 258 259 260 263 261 259 260 261 263 268 269 269 267 263 264 260 251 239 228 239 273 273 245 256 275 279 279 276 262 247 241 235 228 224 224 225
240 239 240 240 239 240 240 241 243 242 244 242 238 235 230 225 218 204 198 237 241 245 242 232 232 237 237 235 234 236 239 241 242 242 241 239 238 239 240 240 239 240 245 248 247 247 250 254 256 255 254 254 257 259 260 259 257 256 258 260 264 269 269 268 261 254 260 257 251 239 219 222 270 281 228 238 272 285 276 267 255 237 230 232 233 229 230 231
240 237 237 237 237 238 239 239 240 240 240 238 231 226 222 216 205 191 220 236 238 243 234 224 226 231 232 234 235 235 236 238 239 237 235 235 236 235 234 234 234 236 242 247 248 250 250 250 251 254 255 255 257 259 259 258 257 255 253 252 258 265 267 265 242 224 245 260 256 236 218 218 234 249 216 232 264 278 266 255 245 232 228 233 238 237 237 239
242 238 236 236 235 237 239 240 240 241 240 234 227 220 214 203 197 208 227 235 240 242 230 223 223 223 226 232 235 235 234 235 237 235 234 233 234 236 235 233 231 229 236 244 246 250 254 253 252 254 255 256 255 254 255 255 252 248 240 224 221 239 247 242 217 212 236 246 246 213 202 217 235 243 244 245 257 266 261 251 239 231 230 232 235 237 239 241
243 242 239 237 234 235 238 240 239 238 236 228 219 213 205 191 208 223 225 225 226 233 230 226 222 218 218 222 224 226 228 231 234 232 233 232 233 236 237 237 234 230 234 244 241 242 253 259 256 254 254 254 251 247 248 251 247 243 231 208 203 220 246 248 241 243 243 238 235 211 201 228 247 253 259 256 253 253 250 245 237 233 232 231 230 230 231 233
237 240 241 240 237 234 234 237 236 232 228 222 211 203 195 198 226 229 225 223 223 232 234 215 205 205 208 215 219 220 220 226 230 229 231 230 229 233 234 234 234 233 232 234 233 230 236 257 257 254 252 251 250 248 247 248 250 250 240 221 216 220 230 253 253 251 258 258 221 194 194 229 234 247 265 262 251 242 233 233 234 230 223 219 219 218 220 226
232 236 239 239 237 235 233 234 234 227 221 217 206 198 196 210 227 229 225 222 221 226 226 201 191 199 205 211 215 216 216 222 226 226 229 231 231 233 235 234 233 232 229 225 228 230 233 247 254 254 253 246 245 245 238 236 245 250 238 222 224 227 232 251 270 271 294 321 237 194 207 235 231 244 258 253 248 233 220 225 229 222 217 217 218 216 219 227
234 236 238 236 236 236 233 233 232 221 216 214 201 197 208 220 226 228 226 223 222 223 219 203 195 200 205 212 213 213 216 220 223 225 228 231 234 236 235 236 235 234 233 229 227 229 232 246 251 250 252 247 242 240 233 229 230 231 223 222 229 229 226 242 272 271 272 289 258 216 230 247 250 259 254 241 248 231 209 215 220 219 225 225 219 221 229 232
234 237 237 234 233 234 232 234 231 218 213 212 203 205 219 227 228 228 224 222 224 226 222 217 216 213 213 214 215 215 215 219 223 225 228 230 235 238 236 237 237 237 240 238 235 237 239 247 251 248 249 248 244 243 237 229 225 220 221 229 235 234 228 231 263 271 252 267 258 226 232 242 241 252 249 236 236 227 211 211 215 220 226 222 220 230 235 229
232 236 238 235 231 230 228 231 230 219 210 206 205 216 228 229 229 228 225 222 226 228 226 226 230 228 224 221 221 220 216 218 222 222 225 230 236 241 238 237 238 237 241 241 236 239 243 247 251 245 243 244 242 238 231 227 227 227 230 230 226 225 224 220 227 260 249 251 268 248 239 238 230 231 242 240 234 230 225 221 220 222 219 217 223 231 226 222
233 234 239 236 230 227 224 224 222 212 203 200 204 219 230 231 230 229 226 226 229 229 228 230 231 231 229 226 226 227 221 220 224 222 224 229 235 241 239 235 236 237 239 242 239 240 240 241 249 243 240 241 235 227 225 229 229 225 226 227 222 219 218 213 216 233 250 249 266 262 244 239 234 230 240 253 249 238 232 227 223 219 216 219 226 225 220 224
236 237 239 236 229 225 222 220 215 205 199 201 209 222 230 231 231 230 228 228 228 228 229 231 232 231 232 227 226 229 225 223 226 226 227 231 233 238 238 233 235 236 236 238 240 240 235 236 244 239 229 226 226 230 236 240 237 229 224 222 221 220 217 223 230 227 232 252 266 262 259 256 242 227 234 250 251 236 230 225 218 216 218 223 224 221 222 227
239 237 237 235 228 222 218 215 211 206 202 205 215 226 229 229 229 230 230 230 229 231 231 232 232 233 236 233 227 228 226 224 227 228 229 231 232 235 239 240 239 237 235 232 234 237 233 233 238 234 228 228 235 246 250 244 241 241 237 232 231 228 221 221 239 227 223 237 248 256 281 275 257 222 214 225 225 220 220 215 213 218 222 222 221 222 225 228
237 235 236 235 226 219 216 214 211 207 205 207 214 222 226 227 228 229 230 229 230 232 234 235 235 234 234 236 234 231 228 227 229 230 230 232 235 238 242 244 240 240 243 241 244 248 241 235 234 235 239 243 247 250 247 242 239 237 237 236 235 235 225 216 220 218 216 231 242 250 275 271 259 246 217 213 217 220 219 212 211 216 220 218 219 222 225 232
235 236 237 233 224 218 216 216 214 209 209 213 215 217 220 224 228 229 229 230 231 232 233 234 235 232 230 233 233 231 231 231 232 234 234 235 239 241 242 242 242 244 247 246 248 247 236 229 229 234 243 247 248 247 244 242 237 231 235 237 231 230 227 223 227 230 223 227 231 237 257 260 257 247 231 221 219 223 222 214 208 210 215 218 219 223 229 236
230 228 231 231 227 222 217 215 214 212 215 219 218 215 218 222 226 228 229 230 231 230 229 231 233 232 230 229 229 230 233 234 235 238 239 239 241 241 239 240 243 245 246 245 247 243 232 226 222 223 243 244 242 244 238 234 233 234 240 240 234 230 227 226 230 234 244 240 224 219 249 256 252 233 223 219 216 217 215 210 209 214 219 223 226 231 237 240
227 221 224 228 230 227 223 220 220 218 218 219 218 217 218 220 224 227 228 228 228 228 228 230 231 230 228 227 229 233 234 235 238 241 242 241 240 240 239 240 243 245 246 248 249 246 240 232 223 216 220 226 226 227 230 235 236 236 237 237 236 232 225 225 228 228 241 244 230 227 243 253 246 219 212 215 214 214 213 210 214 219 221 227 233 237 241 240
227 222 220 220 221 229 232 229 224 223 222 220 220 222 222 222 225 227 226 226 227 227 228 230 230 228 227 228 231 234 236 237 239 240 242 242 241 240 239 239 241 243 245 247 247 244 238 232 229 230 232 236 240 242 245 248 243 240 241 239 237 234 229 226 226 227 234 240 239 237 239 245 248 235 228 228 216 210 212 213 219 222 223 229 234 235 236 237
232 229 225 222 218 223 233 234 226 222 224 224 224 226 226 225 226 226 226 227 227 227 228 229 229 228 229 230 231 235 237 238 237 237 240 242 242 242 241 240 240 240 241 243 241 238 233 231 235 236 238 243 246 248 253 256 254 252 252 247 240 238 233 224 225 233 233 230 245 246 240 241 245 245 244 240 225 219 225 228 230 229 228 234 237 234 233 233
235 235 233 231 221 213 218 228 229 226 227 225 225 227 226 225 225 223 227 230 230 229 229 229 230 230 231 232 232 234 236 236 237 238 239 239 241 242 241 240 239 238 239 241 238 234 231 236 240 238 242 248 247 248 252 254 256 255 253 251 246 241 236 229 231 238 234 228 242 249 246 245 247 249 249 244 240 244 247 243 236 234 237 244 245 238 233 235
228 231 233 232 226 214 209 217 226 229 230 227 225 225 225 225 225 226 229 231 229 229 229 230 231 232 233 233 233 234 234 232 234 237 238 238 241 243 241 240 239 237 238 240 241 238 233 238 244 242 246 251 248 247 250 250 251 251 249 251 249 244 241 237 240 243 239 239 245 247 248 251 249 248 249 248 249 252 249 244 240 244 251 256 254 247 243 247
228 230 234 233 232 224 215 214 215 220 225 225 223 225 225 225 228 231 234 232 229 229 228 230 234 236 235 236 234 234 236 237 237 240 240 238 239 243 243 243 243 241 239 237 238 237 232 236 244 240 241 249 248 245 246 246 247 249 249 250 248 245 241 236 240 242 238 241 246 244 246 251 246 242 247 250 251 250 247 248 251 256 262 263 260 256 257 262
230 233 236 238 238 233 228 226 219 215 219 220 221 225 227 228 232 236 236 235 234 233 231 234 239 239 238 237 235 236 241 242 242 245 245 243 246 251 251 249 249 246 242 239 237 235 232 233 238 236 234 245 247 243 243 245 247 248 249 248 244 240 236 234 238 239 236 240 243 240 242 248 247 246 249 251 251 251 251 255 259 264 268 269 266 265 266 268
228 232 233 237 242 239 237 236 231 225 223 221 222 227 229 232 236 235 232 232 235 236 236 239 241 238 235 235 236 239 243 243 242 244 245 244 248 252 252 251 253 250 247 243 238 235 233 231 233 232 231 242 248 245 243 244 245 246 249 250 244 238 237 238 240 242 241 241 241 239 244 248 249 250 253 255 256 256 258 261 264 267 270 269 267 267 267 267
Height
3154 3155 3156 3156 3157 3159 3160 3161 3162 3162 3163 3164 3164 3165 3166 3166 3167 3168 3168 3169 3169 3170 3170 3170 3171 3171 3172 3172 3172 3172 3172 3172 3173 3173 3173 3173 3173 3173 3174 3174 3174 3174 3174 3175 3175 3175 3175 3175 3175 3175 3176 3176 3176 3176 3177 3177 3177 3178 3178 3180 3180 3180 3180 3179 3180 3180 3180 3180 3180 3180 3180 3180 3180 3179 3180 3181 3181 3181 3181 3180 3180 3181 3181 3181 3181 3181 3181 3180
3154 3154 3155 3156 3157 3158 3159 3160 3161 3162 3163 3164 3164 3165 3166 3166 3167 3167 3168 3168 3169 3169 3170 3170 3170 3171 3171 3171 3171 3171 3172 3172 3172 3172 3172 3172 3173 3173 3173 3173 3174 3174 3174 3174 3174 3174 3174 3175 3175 3175 3175 3176 3176 3176 3176 3176 3177 3177 3178 3179 3179 3179 3178 3178 3178 3178 3179 3179 3179 3179 3180 3180 3179 3179 3179 3181 3180 3180 3180 3178 3178 3179 3179 3180 3180 3180 3180 3179
3153 3154 3155 3156 3157 3158 3159 3160 3160 3161 3162 3163 3164 3164 3165 3166 3166 3167 3168 3168 3168 3169 3169 3169 3170 3170 3170 3170 3170 3171 3171 3171 3171 3172 3172 3172 3172 3172 3173 3173 3173 3173 3174 3174 3174 3174 3174 3174 3175 3175 3175 3175 3175 3176 3176 3176 3176 3177 3178 3179 3178 3177 3177 3177 3177 3177 3178 3178 3179 3179 3179 3179 3179 3179 3179 3180 3179 3179 3179 3178 3177 3177 3178 3179 3179 3179 3179 3179
3152 3153 3154 3155 3156 3157 3158 3159 3160 3160 3161 3162 3163 3164 3164 3165 3166 3166 3167 3167 3168 3168 3168 3169 3169 3169 3169 3170 3170 3170 3171 3171 3171 3171 3171 3171 3172 3172 3172 3172 3173 3173 3173 3173 3174 3174 3174 3174 3174 3175 3175 3175 3175 3175 3175 3176 3176 3176 3177 3178 3177 3177 3177 3177 3177 3177 3177 3177 3177 3178 3178 3178 3178 3178 3178 3178 3179 3179 3178 3177 3176 3176 3176 3177 3177 3177 3178 3178
3152 3152 3153 3154 3155 3156 3157 3158 3159 3159 3160 3161 3162 3162 3163 3164 3165 3165 3166 3167 3167 3167 3167 3168 3168 3168 3169 3169 3169 3170 3170 3171 3170 3170 3171 3171 3171 3171 3172 3172 3172 3173 3173 3173 3173 3173 3173 3174 3174 3174 3175 3175 3175 3175 3175 3175 3176 3176 3176 3176 3176 3176 3176 3176 3176 3176 3176 3177 3176 3177 3177 3177 3177 3177 3177 3177 3178 3178 3176 3175 3176 3175 3175 3175 3175 3175 3176 3176
3150 3151 3152 3153 3154 3155 3156 3157 3157 3158 3159 3160 3161 3161 3162 3163 3164 3164 3165 3165 3166 3166 3167 3167 3167 3168 3168 3168 3169 3169 3170 3170 3169 3170 3170 3170 3171 3171 3171 3172 3172 3172 3172 3173 3173 3173 3173 3173 3174 3174 3174 3175 3175 3175 3175 3175 3176 3176 3176 3175 3175 3175 3175 3175 3175 3175 3176 3176 3175 3175 3175 3176 3176 3175 3176 3176 3175 3176 3175 3175 3175 3174 3174 3174 3173 3174 3174 3174
3149 3150 3151 3151 3152 3153 3154 3155 3156 3157 3158 3159 3159 3160 3161 3162 3163 3163 3164 3164 3165 3165 3166 3166 3166 3167 3167 3167 3168 3168 3169 3169 3168 3169 3169 3170 3170 3170 3171 3171 3171 3172 3172 3172 3172 3173 3173 3173 3173 3173 3174 3174 3174 3174 3174 3175 3175 3176 3175 3174 3175 3174 3174 3174 3174 3174 3174 3174 3174 3174 3174 3174 3174 3174 3174 3174 3174 3174 3174 3173 3173 3173 3173 3172 3172 3172 3172 3173
3148 3148 3149 3150 3151 3152 3153 3154 3155 3156 3156 3157 3158 3159 3160 3161 3161 3162 3163 3163 3164 3164 3165 3165 3165 3166 3166 3166 3167 3167 3167 3167 3167 3168 3168 3169 3169 3169 3170 3170 3171 3171 3171 3172 3172 3172 3172 3172 3173 3173 3173 3174 3174 3174 3174 3174 3174 3174 3174 3173 3174 3173 3173 3173 3173 3173 3173 3173 3173 3173 3173 3173 3172 3172 3172 3172 3172 3172 3172 3172 3172 3171 3171 3171 3171 3171 3171 3171
3146 3147 3148 3148 3149 3150 3151 3152 3153 3154 3155 3156 3157 3157 3158 3159 3160 3161 3161 3162 3163 3163 3164 3164 3164 3164 3165 3165 3166 3166 3166 3166 3166 3166 3167 3167 3168 3168 3169 3169 3170 3170 3170 3171 3171 3171 3171 3172 3172 3172 3173 3172 3173 3173 3173 3174 3173 3173 3173 3172 3172 3172 3172 3172 3172 3172 3172 3171 3171 3171 3171 3171 3170 3170 3170 3170 3170 3171 3170 3170 3170 3170 3170 3169 3169 3170 3170 3170
3144 3145 3146 3147 3147 3148 3149 3150 3151 3153 3154 3154 3155 3156 3157 3157 3158 3159 3160 3161 3161 3162 3162 3163 3163 3163 3164 3164 3164 3164 3164 3165 3165 3165 3166 3166 3166 3167 3167 3168 3168 3169 3169 3170 3170 3170 3171 3171 3171 3172 3172 3171 3172 3172 3172 3172 3172 3171 3171 3171 3171 3171 3170 3171 3170 3170 3170 3170 3170 3170 3170 3169 3168 3168 3167 3168 3169 3169 3169 3169 3168 3168 3168 3168 3168 3168 3168 3169
3141 3142 3144 3145 3146 3146 3147 3149 3149 3151 3152 3153 3153 3154 3155 3156 3156 3157 3158 3159 3160 3160 3161 3161 3162 3162 3162 3162 3163 3163 3163 3163 3163 3164 3164 3164 3165 3166 3166 3166 3167 3167 3168 3168 3169 3169 3169 3170 3170 3170 3170 3170 3170 3170 3170 3171 3171 3170 3170 3170 3170 3169 3169 3169 3169 3169 3169 3168 3168 3168 3168 3167 3166 3166 3165 3166 3167 3167 3167 3167 3166 3167 3166 3167 3167 3167 3167 3167
3139 3140 3141 3142 3143 3144 3146 3146 3147 3148 3149 3151 3151 3152 3153 3154 3155 3156 3156 3157 3158 3158 3159 3160 3160 3160 3160 3160 3161 3161 3161 3162 3162 3162 3162 3163 3163 3164 3164 3165 3165 3166 3166 3167 3167 3168 3168 3168 3169 3169 3169 3169 3169 3169 3169 3169 3169 3169 3169 3169 3168 3168 3167 3167 3167 3167 3167 3166 3167 3167 3166 3164 3164 3164 3164 3165 3165 3165 3165 3165 3165 3165 3165 3165 3165 3165 3165 3165
3136 3138 3139 3140 3141 3142 3143 3144 3145 3146 3147 3148 3149 3150 3151 3152 3153 3154 3155 3155 3156 3156 3157 3158 3158 3158 3158 3158 3159 3160 3160 3160 3160 3160 3161 3161 3162 3162 3163 3163 3164 3164 3165 3165 3166 3166 3167 3167 3167 3167 3168 3168 3168 3167 3167 3167 3168 3168 3167 3167 3167 3167 3166 3165 3165 3165 3165 3165 3165 3165 3164 3163 3162 3162 3162 3163 3163 3163 3163 3163 3163 3163 3163 3163 3163 3163 3164 3164
3133 3135 3136 3137 3139 3140 3141 3142 3143 3144 3145 3146 3147 3148 3149 3150 3151 3152 3153 3153 3154 3154 3155 3156 3156 3156 3156 3156 3157 3158 3158 3158 3158 3158 3159 3159 3160 3160 3161 3162 3162 3162 3163 3163 3164 3164 3165 3165 3166 3166 3166 3166 3166 3166 3166 3165 3166 3166 3166 3165 3165 3165 3164 3163 3163 3163 3163 3163 3163 3163 3163 3162 3160 3159 3160 3161 3161 3161 3161 3161 3161 3161 3161 3161 3161 3161 3162 3162
3130 3132 3133 3135 3136 3137 3138 3140 3141 3142 3143 3144 3145 3146 3147 3148 3149 3150 3151 3151 3152 3152 3153 3154 3154 3154 3154 3154 3155 3155 3156 3156 3156 3157 3157 3157 3158 3158 3159 3160 3160 3161 3161 3162 3162 3163 3163 3164 3164 3164 3164 3164 3164 3164 3165 3164 3164 3164 3164 3164 3163 3164 3163 3161 3161 3162 3161 3161 3162 3162 3162 3161 3159 3158 3159 3159 3159 3159 3159 3159 3159 3159 3159 3159 3159 3159 3159 3160
3127 3129 3130 3132 3133 3134 3136 3137 3138 3139 3140 3141 3142 3143 3144 3145 3146 3147 3148 3149 3150 3150 3151 3151 3152 3152 3151 3151 3152 3153 3153 3154 3154 3155 3155 3155 3156 3156 3157 3158 3158 3159 3159 3160 3160 3161 3161 3161 3162 3162 3162 3162 3162 3162 3164 3164 3163 3162 3162 3163 3162 3162 3162 3161 3159 3159 3160 3159 3160 3159 3159 3159 3157 3156 3157 3157 3157 3157 3157 3157 3157 3157 3157 3157 3157 3157 3157 3158
3124 3125 3127 3128 3130 3131 3133 3134 3136 3137 3138 3139 3139 3141 3142 3142 3144 3145 3145 3146 3147 3147 3148 3148 3149 3150 3148 3148 3150 3151 3151 3152 3152 3152 3152 3153 3154 3154 3155 3156 3157 3157 3157 3158 3158 3158 3159 3159 3160 3160 3160 3160 3160 3161 3162 3162 3162 3161 3160 3160 3161 3160 3160 3160 3158 3157 3157 3158 3158 3157 3156 3157 3156 3154 3154 3155 3155 3155 3155 3155 3155 3155 3155 3155 3155 3155 3155 3155
3121 3122 3124 3125 3127 3128 3130 3131 3133 3134 3135 3136 3137 3138 3139 3140 3141 3141 3142 3143 3144 3144 3145 3145 3147 3147 3145 3146 3147 3148 3149 3149 3149 3150 3150 3151 3152 3153 3153 3154 3155 3155 3155 3156 3156 3156 3157 3157 3157 3158 3157 3157 3158 3159 3160 3160 3161 3161 3160 3159 3159 3159 3158 3158 3157 3155 3155 3156 3156 3155 3154 3154 3154 3152 3151 3152 3152 3152 3152 3152 3152 3152 3152 3152 3152 3152 3152 3153
3117 3118 3120 3122 3123 3125 3126 3128 3130 3131 3132 3133 3134 3135 3136 3137 3137 3137 3138 3139 3140 3141 3142 3142 3144 3144 3142 3143 3145 3146 3147 3147 3147 3148 3148 3149 3150 3150 3151 3152 3152 3153 3153 3153 3153 3154 3154 3154 3154 3155 3154 3154 3155 3157 3157 3158 3159 3158 3158 3158 3157 3157 3156 3156 3155 3152 3154 3154 3153 3153 3152 3151 3153 3151 3148 3148 3149 3150 3149 3149 3149 3149 3149 3149 3149 3149 3150 3150
3113 3115 3116 3118 3120 3121 3123 3125 3126 3128 3129 3130 3131 3132 3133 3133 3134 3134 3135 3135 3137 3139 3140 3139 3140 3140 3139 3140 3142 3144 3144 3144 3145 3146 3146 3147 3148 3148 3149 3149 3150 3151 3150 3151 3151 3151 3152 3151 3150 3151 3153 3153 3154 3154 3155 3156 3156 3155 3156 3155 3155 3154 3154 3154 3151 3150 3152 3152 3150 3150 3149 3148 3149 3149 3147 3144 3144 3145 3146 3146 3146 3146 3145 3146 3146 3146 3147 3147
3109 3111 3112 3114 3116 3118 3120 3121 3123 3124 3126 3126 3128 3129 3129 3130 3131 3131 3131 3133 3134 3136 3136 3135 3136 3136 3136 3137 3139 3141 3141 3142 3142 3144 3144 3145 3146 3146 3146 3147 3148 3148 3148 3149 3148 3148 3150 3147 3146 3150 3151 3152 3152 3152 3153 3153 3153 3153 3153 3153 3152 3152 3151 3151 3148 3147 3149 3149 3147 3147 3145 3144 3144 3145 3145 3141 3139 3141 3142 3142 3142 3142 3142 3142 3143 3143 3144 3144
3105 3106 3108 3110 3112 3114 3116 3118 3119 3121 3122 3122 3124 3126 3127 3128 3129 3129 3129 3129 3129 3131 3132 3131 3132 3132 3133 3134 3136 3138 3138 3138 3139 3141 3142 3143 3144 3144 3144 3145 3145 3145 3146 3146 3146 3146 3145 3142 3145 3149 3149 3149 3150 3150 3150 3150 3150 3151 3150 3150 3150 3149 3149 3149 3146 3145 3146 3145 3144 3144 3141 3139 3139 3140 3141 3138 3136 3137 3137 3138 3138 3137 3137 3138 3139 3140 3140 3140
3100 3102 3104 3106 3108 3110 3112 3114 3115 3116 3117 3119 3121 3124 3125 3126 3126 3127 3127 3126 3124 3126 3127 3127 3128 3128 3129 3130 3132 3134 3134 3135 3136 3137 3139 3140 3140 3141 3141 3142 3143 3143 3142 3142 3144 3144 3141 3140 3143 3146 3146 3146 3147 3147 3148 3147 3148 3148 3148 3148 3147 3147 3148 3147 3145 3143 3143 3142 3141 3141 3137 3134 3134 3134 3135 3135 3132 3132 3133 3133 3133 3132 3132 3134 3135 3136 3136 3137
3096 3099 3100 3102 3104 3106 3107 3110 3110 3112 3113 3116 3119 3121 3122 3123 3124 3124 3124 3123 3119 3119 3122 3123 3124 3124 3124 3126 3129 3130 3130 3131 3132 3132 3135 3137 3137 3139 3138 3139 3141 3139 3138 3140 3141 3141 3139 3139 3140 3143 3143 3144 3144 3144 3145 3145 3145 3144 3144 3145 3145 3146 3146 3146 3145 3141 3140 3140 3138 3139 3134 3129 3129 3129 3129 3130 3128 3127 3128 3128 3128 3127 3127 3129 3131 3132 3133 3133
3092 3094 3096 3098 3100 3101 3104 3104 3105 3108 3111 3113 3116 3118 3119 3120 3121 3122 3123 3121 3114 3112 3116 3118 3118 3118 3119 3122 3124 3125 3126 3127 3127 3127 3131 3134 3134 3135 3135 3136 3137 3135 3135 3137 3138 3137 3137 3136 3137 3139 3140 3141 3141 3141 3142 3143 3143 3142 3141 3141 3142 3144 3144 3144 3143 3140 3140 3138 3135 3137 3133 3125 3124 3126 3124 3124 3124 3124 3124 3124 3124 3123 3123 3124 3126 3128 3129 3130
3088 3090 3092 3094 3096 3097 3099 3098 3101 3106 3107 3111 3114 3115 3116 3117 3119 3120 3121 3120 3109 3103 3108 3112 3113 3112 3113 3116 3118 3123 3123 3119 3121 3125 3128 3130 3130 3131 3132 3131 3132 3132 3133 3135 3135 3133 3132 3132 3134 3136 3137 3138 3139 3138 3139 3140 3141 3141 3139 3139 3140 3141 3142 3142 3141 3140 3139 3137 3134 3135 3134 3126 3121 3123 3123 3121 3121 3121 3121 3121 3121 3121 3120 3120 3121 3123 3125 3127
3083 3086 3088 3090 3092 3093 3094 3095 3100 3102 3103 3109 3111 3112 3113 3114 3117 3117 3120 3121 3104 3093 3099 3105 3106 3105 3106 3110 3115 3120 3117 3111 3116 3122 3122 3125 3127 3127 3128 3126 3127 3129 3131 3132 3131 3127 3127 3129 3132 3133 3134 3135 3135 3135 3136 3137 3138 3138 3137 3137 3137 3138 3139 3139 3139 3138 3136 3136 3133 3131 3134 3128 3117 3116 3120 3118 3118 3117 3117 3117 3117 3118 3118 3117 3118 3120 3122 3124
3079 3082 3083 3085 3087 3089 3090 3092 3095 3098 3101 3105 3107 3108 3110 3112 3114 3115 3120 3119 3098 3085 3091 3096 3098 3099 3102 3106 3110 3113 3110 3108 3114 3116 3117 3121 3122 3122 3123 3123 3124 3125 3127 3128 3127 3124 3124 3127 3129 3130 3132 3131 3131 3132 3133 3134 3135 3134 3134 3135 3135 3136 3136 3136 3136 3136 3135 3134 3129 3128 3133 3128 3112 3109 3115 3114 3114 3114 3112 3113 3114 3115 3116 3115 3115 3117 3119 3121
3075 3077 3079 3081 3083 3085 3086 3087 3089 3094 3098 3100 3103 3105 3106 3110 3112 3114 3120 3111 3089 3082 3087 3089 3093 3095 3097 3101 3104 3106 3106 3107 3109 3111 3115 3117 3116 3117 3118 3119 3122 3121 3122 3123 3123 3122 3122 3123 3125 3127 3128 3128 3128 3129 3130 3132 3132 3131 3132 3133 3133 3134 3133 3135 3134 3134 3135 3130 3123 3124 3129 3125 3110 3106 3111 3110 3110 3111 3109 3109 3110 3111 3113 3113 3114 3116 3117 3119
3069 3072 3074 3076 3077 3078 3080 3081 3084 3090 3094 3096 3099 3101 3104 3107 3108 3113 3115 3099 3082 3081 3083 3085 3089 3091 3093 3096 3099 3101 3102 3103 3105 3107 3111 3111 3112 3114 3114 3116 3119 3117 3117 3118 3119 3119 3118 3120 3122 3122 3123 3124 3125 3126 3127 3129 3129 3129 3130 3130 3132 3132 3131 3132 3131 3133 3133 3122 3116 3121 3124 3124 3113 3104 3106 3107 3106 3107 3106 3106 3107 3108 3110 3110 3112 3114 3115 3116
3063 3065 3067 3069 3070 3073 3074 3076 3080 3087 3090 3091 3094 3097 3100 3102 3105 3108 3099 3084 3080 3080 3078 3081 3084 3086 3090 3093 3095 3098 3099 3100 3101 3103 3105 3107 3108 3108 3109 3112 3114 3114 3115 3113 3113 3114 3115 3117 3117 3117 3119 3121 3122 3123 3124 3125 3126 3127 3128 3129 3131 3130 3129 3130 3129 3132 3129 3116 3112 3116 3119 3121 3113 3102 3103 3104 3103 3104 3103 3103 3104 3105 3106 3108 3109 3111 3112 3114
3057 3058 3060 3061 3064 3067 3069 3071 3077 3083 3086 3087 3091 3093 3095 3099 3101 3096 3083 3078 3081 3075 3072 3077 3079 3082 3088 3090 3092 3094 3095 3096 3097 3099 3101 3103 3104 3103 3104 3106 3108 3111 3111 3109 3110 3111 3110 3111 3113 3114 3115 3117 3119 3120 3120 3121 3123 3124 3125 3128 3130 3129 3128 3127 3126 3126 3122 3113 3111 3114 3116 3115 3104 3098 3102 3102 3101 3102 3102 3101 3102 3102 3104 3105 3107 3108 3110 3112
3052 3053 3054 3055 3058 3061 3064 3067 3072 3077 3080 3082 3085 3087 3091 3093 3086 3078 3074 3076 3076 3070 3069 3074 3076 3080 3085 3086 3088 3090 3092 3094 3094 3096 3097 3099 3100 3100 3101 3103 3104 3107 3107 3106 3108 3109 3108 3107 3108 3110 3110 3112 3114 3115 3116 3116 3118 3119 3121 3124 3125 3126 3126 3123 3121 3119 3114 3111 3110 3112 3114 3108 3098 3096 3098 3098 3099 3100 3100 3100 3100 3101 3102 3103 3105 3107 3108 3110
3048 3048 3048 3050 3053 3056 3059 3062 3064 3070 3073 3077 3080 3081 3085 3082 3071 3066 3069 3071 3070 3068 3069 3072 3074 3078 3080 3081 3083 3086 3089 3090 3090 3093 3094 3095 3096 3095 3096 3099 3100 3102 3105 3106 3105 3106 3106 3104 3103 3104 3105 3107 3108 3110 3112 3113 3114 3115 3117 3120 3120 3121 3121 3118 3115 3112 3109 3108 3108 3110 3110 3101 3095 3094 3094 3094 3095 3096 3098 3098 3098 3099 3101 3102 3103 3104 3106 3107
3043 3043 3043 3045 3047 3049 3054 3056 3058 3063 3066 3069 3073 3075 3075 3069 3060 3059 3062 3065 3067 3067 3068 3071 3073 3075 3077 3078 3080 3083 3085 3085 3086 3089 3090 3090 3090 3090 3092 3093 3095 3098 3101 3103 3102 3102 3103 3100 3099 3101 3102 3104 3105 3107 3109 3110 3111 3111 3114 3118 3116 3116 3117 3114 3110 3109 3110 3109 3105 3105 3101 3094 3092 3092 3091 3093 3093 3094 3096 3096 3097 3098 3099 3100 3101 3102 3104 3105
3037 3038 3038 3038 3039 3044 3048 3049 3052 3056 3058 3060 3064 3065 3060 3054 3050 3053 3057 3062 3063 3063 3066 3070 3071 3072 3074 3074 3076 3079 3081 3082 3083 3085 3086 3086 3086 3086 3088 3089 3091 3094 3095 3098 3098 3099 3100 3097 3096 3099 3100 3101 3103 3104 3105 3107 3108 3108 3110 3111 3109 3111 3114 3113 3110 3108 3111 3108 3099 3095 3093 3090 3091 3089 3088 3092 3092 3092 3094 3094 3096 3097 3097 3099 3100 3101 3103 3104
3031 3032 3031 3030 3033 3038 3042 3044 3046 3050 3051 3050 3050 3050 3047 3043 3045 3051 3056 3059 3058 3058 3064 3067 3067 3069 3070 3071 3072 3075 3078 3080 3081 3082 3082 3083 3082 3081 3083 3085 3088 3090 3091 3095 3096 3095 3097 3095 3093 3096 3097 3097 3100 3101 3101 3102 3104 3104 3105 3105 3107 3110 3112 3112 3112 3108 3109 3104 3092 3088 3089 3088 3088 3084 3083 3088 3090 3090 3091 3092 3094 3095 3095 3097 3098 3099 3101 3102
3026 3027 3024 3023 3028 3033 3037 3039 3039 3042 3044 3042 3041 3042 3040 3036 3038 3046 3051 3053 3053 3056 3061 3063 3063 3065 3066 3068 3069 3071 3076 3076 3076 3078 3078 3079 3077 3075 3078 3082 3084 3086 3089 3093 3093 3092 3094 3093 3091 3092 3094 3095 3097 3098 3097 3098 3100 3101 3101 3101 3104 3108 3108 3110 3110 3106 3105 3100 3089 3085 3085 3082 3081 3080 3079 3083 3086 3087 3089 3090 3091 3092 3093 3095 3096 3098 3098 3100
3020 3020 3015 3017 3024 3028 3031 3034 3033 3033 3033 3033 3034 3033 3028 3024 3030 3040 3046 3048 3049 3052 3055 3056 3059 3062 3062 3064 3065 3066 3071 3071 3070 3073 3074 3074 3073 3071 3074 3079 3081 3083 3086 3089 3089 3089 3091 3092 3089 3088 3090 3093 3092 3092 3092 3093 3096 3097 3097 3098 3101 3103 3103 3104 3103 3101 3100 3096 3088 3084 3079 3074 3073 3076 3077 3079 3082 3085 3086 3087 3088 3090 3092 3093 3094 3096 3096 3098
3013 3011 3006 3011 3018 3022 3027 3029 3027 3024 3020 3018 3019 3016 3014 3017 3025 3033 3038 3041 3043 3046 3049 3051 3055 3058 3057 3060 3062 3061 3065 3067 3066 3069 3070 3069 3069 3068 3071 3075 3078 3081 3083 3085 3086 3086 3088 3089 3087 3085 3087 3087 3085 3085 3086 3088 3089 3090 3092 3094 3095 3097 3099 3100 3097 3095 3096 3092 3087 3083 3074 3069 3070 3073 3075 3076 3079 3081 3083 3084 3086 3088 3090 3091 3092 3093 3094 3096
3008 3004 2999 3004 3012 3016 3022 3021 3016 3015 3014 3012 3010 3008 3010 3016 3021 3025 3029 3036 3040 3041 3044 3047 3050 3053 3053 3055 3057 3056 3060 3063 3063 3064 3065 3064 3064 3064 3067 3071 3075 3078 3079 3080 3081 3082 3083 3084 3083 3082 3080 3080 3079 3080 3083 3085 3084 3084 3086 3086 3088 3091 3095 3096 3091 3089 3090 3088 3085 3082 3073 3067 3069 3071 3072 3075 3077 3078 3081 3083 3085 3087 3088 3089 3090 3091 3092 3093
3001 2996 2993 2998 3004 3010 3013 3010 3006 3008 3008 3005 3005 3006 3010 3014 3017 3020 3023 3030 3035 3036 3039 3042 3044 3048 3049 3049 3051 3053 3055 3058 3058 3058 3059 3059 3059 3062 3065 3069 3072 3074 3075 3077 3077 3079 3080 3080 3079 3078 3075 3075 3076 3076 3079 3080 3079 3081 3082 3082 3085 3086 3086 3088 3085 3083 3085 3083 3081 3083 3075 3064 3066 3070 3072 3074 3075 3077 3079 3081 3083 3085 3086 3087 3088 3089 3090 3091
2992 2990 2990 2992 2997 3003 3004 3001 3001 3003 3001 3001 3003 3005 3008 3011 3014 3015 3018 3023 3027 3030 3033 3035 3037 3042 3044 3044 3047 3048 3050 3053 3054 3053 3055 3056 3057 3060 3063 3065 3068 3069 3071 3072 3073 3076 3077 3075 3075 3075 3073 3072 3072 3072 3074 3076 3077 3077 3076 3078 3080 3079 3080 3083 3082 3081 3081 3077 3078 3082 3073 3061 3062 3067 3070 3072 3074 3075 3077 3078 3080 3083 3084 3085 3085 3086 3087 3088
2987 2987 2986 2984 2989 2995 2994 2992 2994 2996 2996 2999 3001 3002 3005 3007 3007 3009 3012 3015 3019 3023 3026 3028 3031 3035 3039 3041 3042 3043 3046 3049 3048 3048 3050 3052 3053 3056 3059 3061 3063 3064 3066 3066 3068 3071 3070 3069 3071 3073 3072 3070 3068 3068 3069 3070 3071 3070 3070 3072 3073 3074 3078 3079 3079 3081 3076 3070 3075 3076 3065 3059 3062 3064 3065 3069 3071 3073 3075 3076 3077 3079 3081 3082 3082 3083 3084 3085
2983 2983 2982 2981 2982 2983 2983 2984 2987 2988 2990 2993 2994 2996 3000 3002 3002 3004 3007 3010 3013 3018 3020 3022 3025 3030 3034 3037 3038 3039 3040 3041 3042 3044 3046 3047 3048 3051 3054 3057 3058 3059 3061 3062 3064 3066 3063 3061 3063 3065 3064 3060 3058 3058 3057 3058 3062 3063 3063 3066 3066 3069 3072 3072 3075 3077 3068 3064 3070 3067 3058 3059 3062 3061 3062 3065 3067 3070 3072 3073 3075 3076 3077 3078 3079 3080 3081 3081
2977 2976 2977 2979 2978 2975 2975 2980 2983 2983 2986 2990 2990 2992 2994 2995 2997 3000 3004 3007 3009 3012 3015 3017 3022 3026 3030 3032 3032 3032 3033 3035 3038 3040 3041 3041 3042 3045 3049 3052 3053 3055 3056 3058 3060 3059 3055 3053 3054 3054 3052 3050 3049 3049 3049 3051 3055 3056 3056 3059 3060 3062 3065 3068 3070 3066 3060 3063 3062 3054 3055 3060 3059 3059 3061 3062 3064 3067 3069 3071 3072 3073 3074 3075 3076 3077 3077 3078
2969 2968 2970 2974 2974 2971 2970 2974 2977 2978 2980 2983 2984 2985 2986 2989 2993 2997 2999 3002 3004 3007 3010 3013 3017 3020 3021 3023 3024 3024 3026 3031 3034 3035 3035 3036 3036 3039 3043 3046 3048 3050 3051 3053 3053 3051 3049 3048 3047 3047 3046 3045 3047 3048 3048 3048 3048 3050 3052 3053 3054 3056 3060 3062 3058 3053 3057 3062 3051 3044 3054 3058 3054 3056 3058 3058 3062 3064 3065 3067 3068 3069 3070 3071 3072 3073 3073 3074
2963 2962 2964 2968 2968 2966 2965 2967 2969 2971 2974 2976 2978 2980 2982 2984 2988 2991 2993 2996 2999 3002 3006 3008 3010 3010 3011 3015 3017 3019 3023 3027 3027 3027 3028 3030 3030 3033 3037 3040 3042 3044 3046 3047 3045 3044 3044 3042 3041 3044 3042 3041 3045 3045 3044 3045 3044 3045 3047 3047 3049 3051 3051 3050 3047 3047 3055 3054 3044 3043 3051 3051 3050 3053 3054 3056 3059 3061 3062 3063 3064 3065 3066 3067 3068 3069 3070 3071
2959 2957 2959 2961 2961 2961 2962 2962 2964 2966 2968 2971 2974 2976 2978 2979 2981 2983 2987 2991 2994 2996 2999 2999 2999 3001 3004 3009 3012 3014 3017 3019 3017 3017 3021 3024 3025 3027 3031 3033 3034 3036 3038 3040 3039 3040 3040 3036 3036 3041 3038 3035 3039 3041 3039 3041 3041 3040 3041 3041 3042 3042 3041 3042 3042 3045 3049 3046 3041 3045 3047 3046 3049 3050 3051 3055 3057 3056 3058 3059 3059 3061 3062 3063 3064 3065 3066 3067
2954 2954 2955 2956 2956 2959 2960 2960 2961 2962 2963 2965 2966 2968 2972 2973 2975 2978 2982 2985 2985 2987 2990 2991 2991 2995 3000 3003 3006 3006 3007 3009 3009 3011 3016 3018 3018 3020 3023 3024 3026 3029 3031 3033 3034 3034 3034 3031 3031 3036 3034 3030 3031 3034 3035 3035 3035 3036 3037 3036 3035 3034 3035 3038 3038 3040 3043 3038 3038 3045 3044 3041 3044 3046 3048 3052 3053 3053 3054 3054 3055 3057 3057 3058 3060 3060 3062 3062
2950 2951 2952 2952 2952 2955 2957 2958 2959 2959 2959 2959 2959 2962 2966 2967 2969 2974 2976 2977 2979 2981 2984 2985 2987 2992 2996 2998 2999 2998 3000 3003 3006 3009 3013 3013 3012 3014 3017 3018 3020 3023 3024 3026 3027 3027 3028 3027 3026 3030 3029 3024 3024 3029 3031 3029 3031 3033 3029 3024 3025 3027 3029 3031 3031 3033 3035 3033 3035 3041 3038 3033 3037 3043 3046 3048 3049 3050 3051 3051 3052 3052 3052 3054 3054 3055 3056 3056
2945 2946 2948 2948 2948 2949 2951 2954 2956 2955 2954 2955 2956 2958 2960 2961 2965 2971 2972 2973 2975 2978 2980 2982 2985 2989 2990 2990 2991 2992 2996 3001 3004 3006 3008 3008 3008 3010 3011 3012 3014 3016 3017 3019 3020 3019 3020 3020 3020 3023 3023 3019 3020 3024 3026 3027 3029 3025 3013 3009 3016 3022 3024 3025 3026 3026 3028 3030 3032 3032 3029 3028 3034 3039 3041 3043 3045 3046 3047 3048 3049 3048 3048 3049 3049 3050 3051 3050